Date String (YYYY-MM-DD hh:mm:ss) UTC,Instrument flags,Ambient pressure (hPa),Sample flow (lpm),Bypass flow (lpm),Sample temperature (°C),Ambient temperature (°C),ASC tube jacket temperature (°C),LED temperature (°C),Box temperature (°C),Sample RH (%),Span deviation,Mass concentration (μg/m³),Mass concentration (μg/m³),Mass concentration (μg/m³)
DateTimeUTC,F1_M11,P_M11,Q1_M11,Q2_M11,T1_M11,T2_M11,T3_M11,T4_M11,T5_M11,U1_M11,ZSPAN_M11,X0_M11,X2_M11,X1_M11
2022-01-09 16:00:00,,0835.1,5.02,0.00,22.8,22.2,00.0,31.7,24.6,11.5,0000.0,0005.55,0002.90,0002.55
2022-01-09 16:01:00,,0835.1,4.98,0.00,22.8,22.1,00.0,31.7,24.6,11.5,0000.0,0005.67,0002.92,0002.54
2022-01-09 16:02:00,,0835.1,5.01,0.00,22.8,22.1,00.0,31.7,24.6,11.5,0000.0,0005.64,0002.91,0002.54
2022-01-09 16:03:00,,0835.2,4.98,0.00,22.8,22.0,00.0,31.7,24.6,11.5,0000.0,0005.56,0002.86,0002.52
2022-01-09 16:04:00,,0835.2,5.03,0.00,22.8,22.0,00.0,31.7,24.5,11.5,0000.0,0004.95,0002.82,0002.50
2022-01-09 16:05:00,,0835.2,4.99,0.00,22.7,21.9,00.0,31.7,24.5,11.5,0000.0,0004.05,0002.79,0002.49
2022-01-09 16:06:00,,0835.2,5.01,0.00,22.7,21.8,00.0,31.7,24.4,11.5,0000.0,0003.98,0002.78,0002.47
2022-01-09 16:07:00,,0835.2,4.99,0.00,22.7,21.8,00.0,31.7,24.4,11.5,0000.0,0004.88,0002.77,0002.46
2022-01-09 16:08:00,,0835.2,5.00,0.00,22.7,21.8,00.0,31.7,24.4,11.6,0000.0,0005.41,0002.73,0002.43
2022-01-09 16:09:00,,0835.2,5.00,0.00,22.6,21.8,00.0,31.7,24.3,11.6,0000.0,0005.21,0002.65,0002.37
2022-01-09 16:10:00,,0835.2,4.99,0.00,22.6,21.7,00.0,31.7,24.3,11.6,0000.0,0005.11,0002.63,0002.35
2022-01-09 16:11:00,,0835.2,5.01,0.00,22.6,21.6,00.0,31.6,24.3,11.6,0000.0,0005.62,0002.61,0002.35
2022-01-09 16:12:00,,0835.3,5.00,0.00,22.6,21.6,00.0,31.6,24.2,11.7,0000.0,0005.93,0002.57,0002.34
2022-01-09 16:13:00,,0835.3,4.99,0.00,22.5,21.6,00.0,31.6,24.2,11.7,0000.0,0006.00,0002.58,0002.33
2022-01-09 16:14:00,,0835.4,5.01,0.00,22.5,21.5,00.0,31.6,24.1,11.7,0000.0,0005.99,0002.57,0002.32
2022-01-09 16:15:00,,0835.4,4.99,0.00,22.5,21.5,00.0,31.6,24.1,11.8,0000.0,0006.41,0002.60,0002.32
2022-01-09 16:16:00,,0835.4,5.01,0.00,22.4,21.5,00.0,31.5,24.1,11.8,0000.0,0006.75,0002.59,0002.30
2022-01-09 16:17:00,,0835.5,5.00,0.00,22.4,21.5,00.0,31.5,24.1,11.8,0000.0,0006.75,0002.58,0002.29
2022-01-09 16:18:00,,0835.5,4.99,0.00,22.4,21.5,00.0,31.5,24.1,11.8,0000.0,0005.59,0002.57,0002.28
2022-01-09 16:19:00,,0835.5,5.00,0.00,22.4,21.5,00.0,31.5,24.1,11.8,0000.0,0005.19,0002.57,0002.30
2022-01-09 16:20:00,,0835.5,5.00,0.00,22.4,21.5,00.0,31.5,24.1,11.8,0000.0,0005.24,0002.57,0002.31
2022-01-09 16:21:00,,0835.5,5.02,0.00,22.4,21.5,00.0,31.5,24.1,11.8,0000.0,0005.26,0002.56,0002.30
2022-01-09 16:22:00,,0835.5,4.99,0.00,22.4,21.5,00.0,31.5,24.1,11.9,0000.0,0004.71,0002.58,0002.30
2022-01-09 16:23:00,,0835.5,5.00,0.00,22.4,21.5,00.0,31.4,24.1,11.9,0000.0,0004.73,0002.64,0002.32
2022-01-09 16:24:00,,0835.5,4.99,0.00,22.4,21.5,00.0,31.4,24.1,11.9,0000.0,0004.80,0002.66,0002.34
2022-01-09 16:25:00,,0835.5,5.01,0.00,22.4,22.0,00.0,31.4,24.2,11.9,0000.0,0004.88,0002.68,0002.34
2022-01-09 16:26:00,,0835.5,5.00,0.00,22.5,22.8,00.0,31.5,24.4,11.8,0000.0,0004.48,0002.69,0002.35
2022-01-09 16:27:00,,0835.5,5.00,0.00,22.7,23.0,00.0,31.5,24.6,11.7,0000.0,0004.27,0002.73,0002.38
2022-01-09 16:28:00,,0835.5,5.00,0.00,22.7,22.8,00.0,31.5,24.6,11.7,0000.0,0004.26,0002.75,0002.41
2022-01-09 16:29:00,,0835.4,5.00,0.00,22.7,22.7,00.0,31.5,24.6,11.7,0000.0,0004.37,0002.78,0002.43
2022-01-09 16:30:00,,0835.4,5.01,0.00,22.7,22.4,00.0,31.5,24.5,11.7,0000.0,0004.52,0002.83,0002.46
2022-01-09 16:31:00,,0835.4,4.99,0.00,22.7,22.3,00.0,31.6,24.4,11.7,0000.0,0004.73,0002.91,0002.50
2022-01-09 16:32:00,,0835.4,5.00,0.00,22.7,22.2,00.0,31.6,24.4,11.8,0000.0,0004.82,0002.95,0002.53
2022-01-09 16:33:00,,0835.4,5.01,0.00,22.6,22.1,00.0,31.6,24.4,11.8,0000.0,0005.92,0002.94,0002.54
2022-01-09 16:34:00,,0835.4,4.99,0.00,22.6,22.0,00.0,31.6,24.4,11.8,0000.0,0005.58,0002.90,0002.55
2022-01-09 16:35:00,,0835.5,5.01,0.00,22.6,22.0,00.0,31.6,24.4,11.9,0000.0,0005.53,0002.91,0002.55
2022-01-09 16:36:00,,0835.5,4.99,0.00,22.6,22.0,00.0,31.6,24.4,11.9,0000.0,0005.58,0002.95,0002.58
2022-01-09 16:37:00,,0835.6,5.00,0.00,22.6,21.9,00.0,31.6,24.4,11.8,0000.0,0005.56,0002.95,0002.60
2022-01-09 16:38:00,,0835.6,4.99,0.00,22.6,21.9,00.0,31.6,24.4,11.8,0000.0,0005.52,0002.94,0002.60
2022-01-09 16:39:00,,0835.6,5.01,0.00,22.6,21.9,00.0,31.6,24.4,11.8,0000.0,0005.57,0002.96,0002.60
2022-01-09 16:40:00,,0835.6,5.00,0.00,22.6,21.9,00.0,31.6,24.4,11.8,0000.0,0005.58,0003.00,0002.62
2022-01-09 16:41:00,,0835.7,4.99,0.00,22.6,21.9,00.0,31.6,24.4,11.8,0000.0,0005.58,0003.05,0002.65
2022-01-09 16:42:00,,0835.6,5.00,0.00,22.6,21.9,00.0,31.6,24.4,11.8,0000.0,0005.42,0003.04,0002.64
2022-01-09 16:43:00,,0835.6,5.00,0.00,22.6,21.9,00.0,31.6,24.4,11.8,0000.0,0005.91,0003.10,0002.67
2022-01-09 16:44:00,,0835.6,5.00,0.00,22.6,21.9,00.0,31.6,24.4,11.8,0000.0,0005.40,0003.15,0002.71
2022-01-09 16:45:00,,0835.6,5.01,0.00,22.6,21.9,00.0,31.6,24.4,11.8,0000.0,0005.30,0003.17,0002.72
2022-01-09 16:46:00,,0835.6,5.00,0.00,22.6,21.9,00.0,31.6,24.4,11.8,0000.0,0005.27,0003.18,0002.76
2022-01-09 16:47:00,,0835.6,4.99,0.00,22.6,21.9,00.0,31.6,24.4,11.8,0000.0,0005.20,0003.18,0002.79
2022-01-09 16:48:00,,0835.6,5.01,0.00,22.6,21.8,00.0,31.6,24.4,11.8,0000.0,0005.25,0003.20,0002.82
2022-01-09 16:49:00,,0835.6,5.00,0.00,22.6,21.8,00.0,31.6,24.4,11.8,0000.0,0005.21,0003.20,0002.84
2022-01-09 16:50:00,,0835.6,5.00,0.00,22.6,21.8,00.0,31.6,24.4,11.8,0000.0,0005.19,0003.20,0002.87
2022-01-09 16:51:00,,0835.6,5.00,0.00,22.6,21.8,00.0,31.6,24.4,11.8,0000.0,0005.17,0003.21,0002.91
2022-01-09 16:52:00,,0835.6,4.99,0.00,22.6,21.8,00.0,31.6,24.4,11.8,0000.0,0005.08,0003.20,0002.92
2022-01-09 16:53:00,,0835.6,5.00,0.00,22.6,21.8,00.0,31.5,24.4,11.9,0000.0,0005.22,0003.24,0002.94
2022-01-09 16:54:00,,0835.7,5.00,0.00,22.6,21.8,00.0,31.5,24.4,11.9,0000.0,0004.97,0003.23,0002.95
2022-01-09 16:55:00,,0835.7,5.00,0.00,22.6,21.8,00.0,31.5,24.4,11.9,0000.0,0005.02,0003.25,0002.96
2022-01-09 16:56:00,,0835.7,5.01,0.00,22.6,21.8,00.0,31.5,24.4,11.8,0000.0,0005.20,0003.29,0003.01
2022-01-09 16:57:00,,0835.7,4.99,0.00,22.6,21.8,00.0,31.5,24.4,11.7,0000.0,0005.42,0003.33,0003.04
2022-01-09 16:58:00,,0835.8,5.01,0.00,22.6,21.8,00.0,31.5,24.4,11.8,0000.0,0006.14,0003.35,0003.09
2022-01-09 16:59:00,,0835.8,5.00,0.00,22.6,21.8,00.0,31.5,24.4,11.8,0000.0,0006.44,0003.36,0003.12
